FW7254 Weather Reports


time (UTC)temp
C
wind
direction
speed
KPH
gust
KPH
rain 1hr
cm
rain 24hr
cm
rain mn
cm
humidity
%
barometer
mb
20260504184836 13 15 4.8 0.0 0.00 0.00 0.00 48 1013.6
20260504183336 13 360 6.4 0.0 0.00 0.00 0.00 52 1013.3
20260504181823 13 355 3.2 0.0 0.00 0.00 0.00 53 1013.1
20260504180349 13 5 1.6 0.0 0.00 0.00 0.00 52 1012.8
20260504174812 13 5 6.4 0.0 0.00 0.00 0.00 51 1012.3
20260504173318 13 342 8.0 0.0 0.00 0.00 0.00 51 1011.8
20260504171826 13 241 4.8 0.0 0.00 0.00 0.00 52 1011.4
20260504170332 13 355 4.8 0.0 0.00 0.00 0.00 52 1011.3
20260504160334 14 360 4.8 0.0 0.00 0.00 0.00 51 1009.6
20260504150330 15 350 4.8 0.0 0.00 0.00 1.04 53 1008.4
20260504140331 16 360 4.8 0.0 0.00 0.00 1.04 55 1007.1
20260504130325 17 13 1.6 0.0 0.00 0.00 1.04 53 1005.7
20260504110312 20 57 1.6 0.0 0.00 0.00 1.04 47 1001.6
20260504100320 21 103 0.0 0.0 0.00 0.00 1.04 54 999.8
20260504081819 24 130 3.2 0.0 0.00 0.00 1.04 41 996.3
20260504080326 24 284 6.4 0.0 0.00 0.00 1.04 38 995.8
20260504070327 24 132 3.2 0.0 0.00 0.00 1.04 47 994.9
20260504050330 25 226 4.8 0.0 0.00 0.00 1.04 60 994.2
20260504044818 25 121 6.4 0.0 0.00 0.00 1.04 59 994.1
20260504043317 25 180 4.8 0.0 0.00 0.00 1.04 58 994.1
20260504041852 25 263 8.0 0.0 0.00 0.00 1.04 58 994.2
20260504040356 25 252 9.7 0.0 0.00 0.00 1.04 56 994.1
20260504034815 25 184 8.0 0.0 0.00 0.00 1.04 58 994.1
20260504033322 25 232 8.0 0.0 0.00 0.00 1.04 56 994.3
20260504031829 26 250 9.7 0.0 0.00 0.00 1.04 57 994.2
20260504030328 26 187 9.7 0.0 0.00 0.00 1.04 57 994.3
20260504024819 26 242 12.9 0.0 0.00 0.00 1.04 56 994.4
20260504023315 26 213 12.9 0.0 0.00 0.00 1.04 59 994.2
20260504021822 26 276 11.3 0.0 0.00 0.00 1.04 62 994.3
20260504020320 26 235 9.7 0.0 0.00 0.00 1.04 63 994.2
20260504014832 26 272 8.0 0.0 0.00 0.00 1.04 64 994.8
20260504013330 26 158 4.8 0.0 0.00 0.00 1.04 67 995.3
20260504011836 25 119 4.8 0.0 0.00 0.00 1.04 69 995.3
20260504010321 25 98 4.8 0.0 0.00 0.00 1.04 69 995.4
20260504004829 25 114 3.2 0.0 0.00 0.00 1.04 71 995.8
20260504003336 24 291 3.2 0.0 0.00 0.00 1.04 76 996.3
20260504001815 23 261 4.8 0.0 0.00 0.00 1.04 77 996.3
20260504000321 23 138 6.4 0.0 0.00 0.00 1.04 80 996.3
20260503234825 22 242 6.4 0.0 0.00 0.00 1.04 85 996.5
20260503233328 22 259 6.4 0.0 0.00 0.00 1.04 88 996.6
20260503231816 21 80 4.8 0.0 0.00 0.00 1.04 91 996.4
20260503230323 21 149 6.4 0.0 0.00 0.00 1.04 92 996.7
20260503224827 21 244 6.4 0.0 0.00 0.00 1.04 94 996.7
20260503223330 21 105 4.8 0.0 0.00 0.00 1.04 94 996.7
20260503221838 21 106 3.2 0.0 0.00 0.00 1.04 95 996.7
20260503220315 20 113 3.2 0.0 0.00 0.00 1.04 95 996.6
20260503214844 20 119 3.2 0.0 0.00 0.00 1.04 94 996.4
20260503213349 21 124 3.2 0.0 0.00 0.00 1.04 95 995.8
20260503211814 20 125 4.8 0.0 0.00 0.00 1.04 94 996.0
20260503210319 20 148 6.4 0.0 0.00 0.00 1.02 94 996.0
20260503204825 20 105 4.8 0.0 0.00 0.00 0.99 94 995.5
20260503203331 20 120 8.0 0.0 0.00 0.00 0.97 94 995.5
20260503201831 20 142 6.4 0.0 0.00 0.00 0.89 94 995.2
20260503200321 20 360 4.8 0.0 0.00 0.00 0.71 94 996.1
20260503194829 20 82 3.2 0.0 0.00 0.00 0.51 93 996.5
20260503193332 20 112 11.3 0.0 0.00 0.00 0.30 94 996.6
20260503191837 20 130 8.0 0.0 0.00 0.00 0.30 94 996.9
20260503190316 20 61 6.4 0.0 0.00 0.00 0.28 94 997.2